Miscellaneous Local Product
Issued by NWS Hastings, NE

Home | Current Version | Previous Version | Text Only | Print | Product List | Glossary Off
Versions: 1 2 3 4 5 6 7 8 9 10 11 12 13 14 15 16 17 18 19 20 21 22 23 24 25 26 27 28 29 30 31 32 33 34 35 36 37 38 39 40 41 42 43 44 45 46 47 48 49 50

343
AXUS43 KGID 261402
MISGRI

GID CWA HOURLY WEATHER ROUNDUP
NATIONAL WEATHER SERVICE HASTINGS NE
900 AM CDT TUE JUL 26 2016

NOTE: "FAIR" INDICATES FEW OR NO CLOUDS BELOW 12,000 FEET WITH NO
SIGNIFICANT WEATHER AND/OR OBSTRUCTIONS TO VISIBILITY.

...SOUTH CENTRAL NEBRASKA...

CITY           SKY/WX    TMP DP  RH WIND       PRES   REMARKS
GRAND ISLAND   SUNNY     74  63  68 S7        30.11R
HASTINGS       SUNNY     71  62  73 S7        30.11S
KEARNEY        SUNNY     72  64  78 S8        30.12S
ORD            SUNNY     71  63  75 S9        30.08F
YORK           SUNNY     73  68  83 SE5       30.10S
AURORA         SUNNY     73  68  85 SE6       30.10S
LEXINGTON      CLOUDY    70  67  92 S9        30.12S FOG
HOLDREGE       SUNNY     71  66  83 S6        30.12R
HEBRON         SUNNY     73  67  81 E3        30.09S

...NEBRASKA PANHANDLE...

CITY           SKY/WX    TMP DP  RH WIND       PRES   REMARKS
CHADRON        SUNNY     74  61  63 S9        30.02R
ALLIANCE       SUNNY     69  65  86 S17G25    30.07S
SCOTTSBLUFF    CLOUDY    69  60  73 SE9       30.06F
SIDNEY         SUNNY     70  64  81 S16       30.12S

...WESTERN AND NORTH CENTRAL NEBRASKA...

CITY           SKY/WX    TMP DP  RH WIND       PRES   REMARKS
VALENTINE      SUNNY     77  63  61 SW15      30.06R
AINSWORTH      SUNNY     73  65  77 S14       30.08R
ONEILL         SUNNY     74  63  68 S10       30.07F
BROKEN BOW     SUNNY     70  66  87 S13G21    30.09F
IMPERIAL       CLOUDY    70  65  84 S12       30.12S
NORTH PLATTE   SUNNY     72  66  81 S10       30.09F
MCCOOK         PTSUNNY   71  66  84 S12       30.12R

...EASTERN NEBRASKA...

CITY           SKY/WX    TMP DP  RH WIND       PRES   REMARKS
NORFOLK        SUNNY     73  66  78 S9        30.09S
SO SIOUX CITY  SUNNY     74  67  78 SE5       30.07S
TEKAMAH        SUNNY     73  66  78 SE7       30.08S
COLUMBUS       SUNNY     72  61  68 S3        30.10R
ALBION         SUNNY     71  65  82 S5        30.10S
OMAHA EPPLEY   MOSUNNY   75  66  73 S6        30.09R
OFFUTT AFB     SUNNY     71  71 100 SE5       30.09R
MILLARD        SUNNY     75  67  76 SE5       30.09S
LINCOLN        SUNNY     73  67  81 CALM      30.09F
NEBRASKA CITY  SUNNY     73  71  92 E3        30.10S
BEATRICE       SUNNY     74  67  80 SE3       30.10R
FALLS CITY     SUNNY     73  67  81 SE3       30.08S

...NORTHERN KANSAS...

CITY           SKY/WX    TMP DP  RH WIND       PRES   REMARKS
GOODLAND       CLOUDY    70  66  87 S15       30.14S
HILL CITY      CLOUDY    69  69 100 S8        30.12S FOG
NORTON         PTSUNNY   72  64  78 SE6       30.11S
SMITH CENTER   PTSUNNY   72  66  83 SE6       30.11S
BELOIT         SUNNY     73  66  78 CALM      30.08F
HAYS           CLOUDY    70  63  78 S6        30.10F VSB 3/4
RUSSELL        MOSUNNY   73  71  93 SE8       30.09S
CONCORDIA      SUNNY     71  66  84 E6        30.09S
SALINA         SUNNY     77  69  76 NE5       30.07F
TOPEKA         SUNNY     76  69  79 E5        30.07S



USA.gov is the U.S. government's official web portal to all federal, state and local government web resources and services.